Date String (YYYY-MM-DD hh:mm:ss) UTC,Instrument flags,absolute air pressure of the measurement (hPa),sample flow rate (lpm),inlet stack bypass flow (lpm),air temperature of the measurement (°C),ambient temperature measured by the external sensor (°C),aerosol sample conditioner tube jacket temperature (°C),OPC LED temperature (°C),internal box temperature (°C),relative humidity of the measurement (%),span deviation,mass concentration of particles derived from Lorenz-Mie calculation of OPC scattering (μg/m³),mass concentration of particles derived from Lorenz-Mie calculation of OPC scattering (μg/m³),mass concentration of particles derived from Lorenz-Mie calculation of OPC scattering (μg/m³)
DateTimeUTC,F1_M11,P_M11,Q1_M11,Q2_M11,T1_M11,T2_M11,T3_M11,T4_M11,T5_M11,U1_M11,ZSPAN_M11,X2_M11,X0_M11,X1_M11
2024-02-06 07:00:00,SystemResetWarning,0827.2,5.00,000.00,020.9,020.1,000.0,029.3,022.5,17.4,0000.0,0001.83,0002.27,0001.61
2024-02-06 07:01:00,SystemResetWarning,0827.1,5.00,000.00,020.8,020.1,000.0,029.3,022.5,17.5,0000.0,0001.87,0002.41,0001.64
2024-02-06 07:02:00,SystemResetWarning,0827.1,4.99,000.00,020.8,020.1,000.0,029.2,022.5,17.5,0000.0,0001.89,0002.47,0001.66
2024-02-06 07:03:00,SystemResetWarning,0827.1,5.00,000.00,020.8,020.1,000.0,029.2,022.5,17.3,0000.0,0001.90,0002.47,0001.67
2024-02-06 07:04:00,SystemResetWarning,0827.1,5.00,000.00,020.8,020.1,000.0,029.2,022.5,17.4,0000.0,0001.88,0002.43,0001.67
2024-02-06 07:05:00,SystemResetWarning,0827.1,5.00,000.00,020.8,020.1,000.0,029.2,022.5,17.4,0000.0,0001.86,0002.40,0001.67
2024-02-06 07:06:00,SystemResetWarning,0827.1,5.00,000.00,020.8,020.1,000.0,029.2,022.5,17.3,0000.0,0001.88,0002.44,0001.67
2024-02-06 07:07:00,SystemResetWarning,0827.1,5.00,000.00,020.8,020.1,000.0,029.2,022.5,17.2,0000.0,0001.89,0002.47,0001.69
2024-02-06 07:08:00,SystemResetWarning,0827.1,5.00,000.00,020.8,020.0,000.0,029.2,022.5,17.2,0000.0,0001.87,0002.46,0001.68
2024-02-06 07:09:00,SystemResetWarning,0827.1,5.01,000.00,020.8,020.0,000.0,029.2,022.5,17.2,0000.0,0001.84,0002.42,0001.65
2024-02-06 07:10:00,SystemResetWarning,0827.1,5.00,000.00,020.8,020.0,000.0,029.2,022.4,17.3,0000.0,0001.84,0002.43,0001.63
2024-02-06 07:11:00,SystemResetWarning,0827.1,4.99,000.00,020.8,020.0,000.0,029.2,022.4,17.3,0000.0,0001.82,0002.41,0001.61
2024-02-06 07:12:00,SystemResetWarning,0827.1,5.00,000.00,020.7,020.0,000.0,029.1,022.4,17.3,0000.0,0001.79,0002.32,0001.58
2024-02-06 07:13:00,SystemResetWarning,0827.1,5.00,000.00,020.7,020.0,000.0,029.1,022.4,17.4,0000.0,0001.76,0002.23,0001.55
2024-02-06 07:14:00,SystemResetWarning,0827.2,5.00,000.00,020.7,020.0,000.0,029.1,022.4,17.5,0000.0,0001.77,0002.26,0001.55
2024-02-06 07:15:00,SystemResetWarning,0827.2,5.00,000.00,020.7,020.0,000.0,029.1,022.4,17.4,0000.0,0001.78,0002.27,0001.55
2024-02-06 07:16:00,SystemResetWarning,0827.1,5.00,000.00,020.7,020.0,000.0,029.1,022.4,17.3,0000.0,0001.79,0002.44,0001.56
2024-02-06 07:17:00,SystemResetWarning,0827.1,5.01,000.00,020.7,020.0,000.0,029.1,022.4,17.0,0000.0,0001.78,0002.48,0001.56
2024-02-06 07:18:00,SystemResetWarning,0827.1,5.01,000.00,020.7,019.9,000.0,029.1,022.4,16.9,0000.0,0001.77,0002.47,0001.55
2024-02-06 07:19:00,SystemResetWarning,0827.1,5.00,000.00,020.7,019.9,000.0,029.1,022.3,17.1,0000.0,0001.76,0002.43,0001.55
2024-02-06 07:20:00,SystemResetWarning,0827.1,5.00,000.00,020.7,019.9,000.0,029.1,022.3,17.2,0000.0,0001.72,0002.38,0001.55
2024-02-06 07:21:00,SystemResetWarning,0827.0,4.99,000.00,020.6,019.9,000.0,029.1,022.3,17.2,0000.0,0001.66,0002.29,0001.50
2024-02-06 07:22:00,SystemResetWarning,0827.0,4.99,000.00,020.6,019.9,000.0,029.0,022.3,17.2,0000.0,0001.62,0002.24,0001.47
2024-02-06 07:23:00,SystemResetWarning,0827.0,4.99,000.00,020.6,019.9,000.0,029.0,022.3,17.2,0000.0,0001.61,0002.23,0001.45
2024-02-06 07:24:00,SystemResetWarning,0826.9,4.99,000.00,020.6,019.8,000.0,029.0,022.3,17.2,0000.0,0001.63,0002.31,0001.45
2024-02-06 07:25:00,SystemResetWarning,0827.0,5.02,000.00,020.6,019.8,000.0,029.0,022.2,17.0,0000.0,0001.60,0002.27,0001.43
2024-02-06 07:26:00,SystemResetWarning,0827.0,5.01,000.00,020.6,019.8,000.0,029.0,022.2,16.9,0000.0,0001.58,0002.26,0001.40
2024-02-06 07:27:00,SystemResetWarning,0827.0,4.99,000.00,020.6,019.8,000.0,029.0,022.2,16.9,0000.0,0001.56,0002.14,0001.38
2024-02-06 07:28:00,SystemResetWarning,0826.9,5.00,000.00,020.6,019.8,000.0,029.0,022.2,16.9,0000.0,0001.53,0002.03,0001.35
2024-02-06 07:29:00,SystemResetWarning,0826.9,4.99,000.00,020.6,019.8,000.0,029.0,022.2,16.9,0000.0,0001.49,0002.00,0001.30
2024-02-06 07:30:00,SystemResetWarning,0826.9,4.99,000.00,020.5,019.8,000.0,029.0,022.2,16.8,0000.0,0001.45,0001.97,0001.25
2024-02-06 07:31:00,SystemResetWarning,0826.9,5.00,000.00,020.5,019.8,000.0,028.9,022.2,16.9,0000.0,0001.44,0002.49,0001.23
2024-02-06 07:32:00,SystemResetWarning,0826.9,5.00,000.00,020.5,019.8,000.0,028.9,022.2,16.9,0000.0,0001.45,0003.00,0001.23
2024-02-06 07:33:00,SystemResetWarning,0826.9,5.00,000.00,020.5,019.8,000.0,028.9,022.2,16.9,0000.0,0001.44,0002.98,0001.22
2024-02-06 07:34:00,SystemResetWarning,0826.8,5.00,000.00,020.5,019.8,000.0,028.9,022.2,16.9,0000.0,0001.39,0002.90,0001.19
2024-02-06 07:35:00,SystemResetWarning,0826.8,4.99,000.00,020.5,019.7,000.0,028.9,022.1,16.8,0000.0,0001.31,0002.75,0001.16
2024-02-06 07:36:00,SystemResetWarning,0826.8,5.00,000.00,020.5,019.7,000.0,028.9,022.1,16.7,0000.0,0001.27,0002.71,0001.13
2024-02-06 07:37:00,SystemResetWarning,0826.8,5.00,000.00,020.5,019.7,000.0,028.9,022.1,16.6,0000.0,0001.24,0002.67,0001.09
2024-02-06 07:38:00,SystemResetWarning,0826.7,5.00,000.00,020.5,019.7,000.0,028.8,022.1,16.5,0000.0,0001.22,0002.66,0001.07
2024-02-06 07:39:00,SystemResetWarning,0826.6,5.00,000.00,020.4,019.7,000.0,028.8,022.1,16.5,0000.0,0001.19,0002.63,0001.04
2024-02-06 07:40:00,SystemResetWarning,0826.6,4.99,000.00,020.4,019.7,000.0,028.8,022.1,16.5,0000.0,0001.18,0002.63,0001.02
2024-02-06 07:41:00,SystemResetWarning,0826.6,5.00,000.00,020.4,019.7,000.0,028.8,022.1,16.5,0000.0,0001.17,0002.59,0001.02
2024-02-06 07:42:00,SystemResetWarning,0826.6,5.00,000.00,020.4,019.7,000.0,028.8,022.0,16.6,0000.0,0001.15,0002.14,0001.00
2024-02-06 07:43:00,SystemResetWarning,0826.6,5.00,000.00,020.4,019.7,000.0,028.8,022.0,16.7,0000.0,0001.15,0001.57,0001.00
2024-02-06 07:44:00,SystemResetWarning,0826.6,5.01,000.00,020.4,019.6,000.0,028.8,022.0,16.7,0000.0,0001.11,0001.51,0000.98
2024-02-06 07:45:00,SystemResetWarning,0826.6,5.01,000.00,020.4,019.6,000.0,028.8,022.0,16.8,0000.0,0001.15,0001.62,0000.98
2024-02-06 07:46:00,SystemResetWarning,0826.5,4.99,000.00,020.3,019.6,000.0,028.8,022.0,16.9,0000.0,0001.18,0001.67,0000.99
2024-02-06 07:47:00,SystemResetWarning,0826.5,4.99,000.00,020.3,019.6,000.0,028.8,022.0,17.0,0000.0,0001.16,0001.62,0000.99
2024-02-06 07:48:00,SystemResetWarning,0826.4,5.00,000.00,020.3,019.6,000.0,028.8,022.0,17.2,0000.0,0001.17,0001.65,0000.98
2024-02-06 07:49:00,SystemResetWarning,0826.4,5.00,000.00,020.3,019.6,000.0,028.7,022.0,17.4,0000.0,0001.16,0001.69,0000.98
2024-02-06 07:50:00,SystemResetWarning,0826.4,4.99,000.00,020.3,019.6,000.0,028.7,022.0,17.4,0000.0,0001.16,0001.66,0000.98
2024-02-06 07:51:00,SystemResetWarning,0826.4,5.02,000.00,020.3,019.6,000.0,028.7,022.0,17.2,0000.0,0001.18,0001.66,0001.00
2024-02-06 07:52:00,SystemResetWarning,0826.4,5.01,000.00,020.3,019.6,000.0,028.7,022.0,17.0,0000.0,0001.20,0001.66,0001.02
2024-02-06 07:53:00,SystemResetWarning,0826.4,4.99,000.00,020.3,019.6,000.0,028.7,021.9,16.8,0000.0,0001.22,0001.78,0001.04
2024-02-06 07:54:00,SystemResetWarning,0826.3,5.00,000.00,020.3,019.6,000.0,028.7,021.9,17.0,0000.0,0001.23,0002.45,0001.05
2024-02-06 07:55:00,SystemResetWarning,0826.4,5.00,000.00,020.3,019.6,000.0,028.7,021.9,17.2,0000.0,0001.24,0003.28,0001.07
2024-02-06 07:56:00,SystemResetWarning,0826.3,5.00,000.00,020.3,019.6,000.0,028.6,021.9,17.1,0000.0,0001.24,0003.24,0001.08
2024-02-06 07:57:00,SystemResetWarning,0826.3,5.00,000.00,020.3,019.6,000.0,028.6,021.9,16.9,0000.0,0001.20,0003.17,0001.07
2024-02-06 07:58:00,SystemResetWarning,0826.3,5.00,000.00,020.3,019.6,000.0,028.6,021.9,16.8,0000.0,0001.22,0003.22,0001.08
2024-02-06 07:59:00,SystemResetWarning,0826.3,5.00,000.00,020.2,019.5,000.0,028.6,021.9,17.0,0000.0,0001.25,0003.26,0001.10
